Location: Worth Mountain WMA
(34.9569°N, 81.4819°W)
Time: 08:02:05
(UTC-04:00)

Amateur Radio Satellites - All Passes

Search period start: 28 March 2017 07:32
Search period end: 29 March 2017 07:32
Location: Worth Mountain WMA, 34.9569°N, 81.4819°W

Satellite Date Start Highest point End Downlink Frequencies (MHz)
Time Altitude Azimuth
STRAND 1 28 Mar 07:45:00 07:50:01 54° 73° (ENE) 07:55:01 437.568
AO-7 28 Mar 07:46:42 07:48:07 11° 311° (NW) 07:49:32 .
XW-2F 28 Mar 07:50:54 07:54:34 59° 284° (WNW) 07:58:14 145.980 - 146.000
LilacSat-2 28 Mar 07:55:34 07:59:11 46° 285° (WNW) 08:02:47 437.200
XW-2A 28 Mar 07:56:13 07:58:08 14° 94° (E) 08:00:01 145.665 - 145.685
HO-68 28 Mar 07:56:39 08:02:14 24° 95° (E) 08:07:47 435.675
CUTE 1.7 + AOD 2 28 Mar 07:57:52 08:00:20 15° 94° (E) 08:02:46 437.475
NUDT-PHONESAT 28 Mar 08:11:15 08:14:40 37° 286° (WNW) 08:18:04 437.300
XW-2D 28 Mar 08:18:32 08:21:35 24° 288° (WNW) 08:24:38 145.860 - 145.880
KAITUO 1B 28 Mar 08:21:01 08:24:13 28° 287° (WNW) 08:27:24 145.475/437.950
XW-2B 28 Mar 08:24:41 08:27:33 21° 289° (WNW) 08:30:24 145.730 - 145.750
BEESAT 3 28 Mar 08:26:05 08:30:01 54° 244° (WSW) 08:33:53 437.485
XW-2C 28 Mar 08:35:27 08:37:44 16° 291° (WNW) 08:40:02 145.795 - 145.815
BEESAT 2 28 Mar 08:45:36 08:49:40 88° 60° (ENE) 08:53:42 435.950
CUTE-I 28 Mar 08:51:30 08:55:45 25° 293° (WNW) 08:59:59 437.470
DOVE 4 28 Mar 08:52:28 08:55:16 15° 296° (WNW) 08:58:02 437.250
UWE-3 28 Mar 08:57:13 09:00:13 19° 94° (E) 09:03:10 435.000/436.395/437.385
AAUSAT CUBESAT 2 28 Mar 09:01:09 09:04:37 25° 96° (E) 09:08:03 437.432
JUGNU 28 Mar 09:06:12 09:10:00 18° 177° (S) 09:13:50 437.505
PRISM 28 Mar 09:13:26 09:15:19 13° 66° (ENE) 09:17:12 437.425
SEEDS 28 Mar 09:21:39 09:25:51 78° 283° (WNW) 09:30:03 437.485
Oscar 11 28 Mar 09:23:06 09:25:50 16° 94° (E) 09:28:33 .
YUBILEINY 28 Mar 09:25:53 09:34:04 43° 283° (WNW) 09:42:16 435.215
STRAND 1 28 Mar 09:26:37 09:29:27 15° 267° (W) 09:32:18 437.568
SRMSAT 28 Mar 09:26:48 09:28:09 11° 165° (SSE) 09:29:32 437.500
XW-2A 28 Mar 09:28:11 09:30:51 22° 288° (WNW) 09:33:30 145.665 - 145.685
CUTE 1.7 + AOD 2 28 Mar 09:32:22 09:36:14 36° 287° (WNW) 09:40:06 437.475
ZACube-1 28 Mar 09:33:16 09:36:52 28° 96° (E) 09:40:25 437.345
PCSat 28 Mar 09:33:33 09:38:45 50° 111° (ESE) 09:43:59 145.827
CUBEBUG 2 28 Mar 09:33:47 09:38:09 87° 278° (W) 09:42:22 437.445
FO-29 28 Mar 09:40:25 09:45:24 19° 62° (ENE) 09:50:11 435.910
HO-68 28 Mar 09:43:16 09:50:13 55° 290° (WNW) 09:57:09 435.675
AO-73 28 Mar 10:00:09 10:04:16 54° 100° (E) 10:08:17 145.935
DELFI C3 28 Mar 10:05:08 10:07:04 13° 93° (E) 10:09:00 145.870
TIGRISAT 28 Mar 10:22:53 10:27:16 41° 73° (ENE) 10:31:39 435.000
UWE-3 28 Mar 10:33:01 10:36:40 28° 289° (WNW) 10:40:15 435.000/436.395/437.385
UNISAT 6 28 Mar 10:33:25 10:38:01 59° 75° (ENE) 10:42:37 437.425
AAUSAT CUBESAT 2 28 Mar 10:36:45 10:39:55 21° 290° (WNW) 10:43:03 437.432
PRISM 28 Mar 10:46:22 10:50:11 41° 261° (W) 10:54:04 437.425
JUGNU 28 Mar 10:54:47 10:58:17 16° 187° (S) 11:01:48 437.505
Oscar 11 28 Mar 10:58:08 11:02:02 34° 287° (WNW) 11:05:55 .
ZACube-1 28 Mar 11:09:57 11:12:56 19° 291° (WNW) 11:15:53 437.345
POLYITAN 1 28 Mar 11:12:31 11:13:11 10° 65° (ENE) 11:13:51 437.675
SRMSAT 28 Mar 11:12:46 11:16:34 17° 174° (S) 11:20:23 437.500
QB50P2 28 Mar 11:15:57 11:17:50 13° 66° (ENE) 11:19:43 145.880/145.840
PCSat 28 Mar 11:18:23 11:22:24 21° 308° (NW) 11:26:27 145.827
FO-29 28 Mar 11:21:45 11:29:38 82° 256° (WSW) 11:37:05 435.910
DUCHIFAT 1 28 Mar 11:25:18 11:26:58 12° 66° (ENE) 11:28:38 145.980
RS-15 28 Mar 11:27:47 11:36:31 25° 101° (E) 11:45:27 29.354- 29.394
DELFI C3 28 Mar 11:38:17 11:41:58 36° 287° (WNW) 11:45:38 145.870
AO-73 28 Mar 11:39:23 11:39:57 10° 295° (WNW) 11:40:32 145.935
ESTCUBE 1 28 Mar 11:59:25 12:02:35 19° 95° (E) 12:05:45 437.505/2401.250
TIGRISAT 28 Mar 12:01:06 12:04:04 17° 267° (W) 12:07:01 435.000
NANOSAT C BR1 28 Mar 12:09:43 12:13:47 45° 74° (ENE) 12:17:52 145.865
UNISAT 6 28 Mar 12:13:33 12:15:00 11° 268° (W) 12:16:28 437.425
EO-79 28 Mar 12:15:26 12:19:38 59° 75° (ENE) 12:23:51 145.935-145.965
AIST 2D 28 Mar 12:16:20 12:19:51 64° 260° (W) 12:23:22 435.315
LO-87 28 Mar 12:36:39 12:40:16 64° 284° (WNW) 12:43:51 145.935 - 145.965
POLYITAN 1 28 Mar 12:44:10 12:48:24 60° 259° (W) 12:52:39 437.675
QB50P2 28 Mar 12:49:02 12:53:10 47° 261° (W) 12:57:19 145.880/145.840
Oscar 19 28 Mar 12:55:26 12:58:18 15° 64° (ENE) 13:01:10 437.125/150
DUCHIFAT 1 28 Mar 12:58:03 13:02:10 49° 260° (W) 13:06:18 145.980
SRMSAT 28 Mar 13:01:09 13:05:03 18° 185° (S) 13:08:55 437.500
VELOX 1 28 Mar 13:02:41 13:06:30 27° 97° (E) 13:10:17 145.980
BUGSAT 1 28 Mar 13:05:45 13:09:54 60° 75° (ENE) 13:14:06 437.445
FO-29 28 Mar 13:12:01 13:15:15 13° 270° (W) 13:18:27 435.910
50 SAT 28 Mar 13:22:38 13:25:35 25° 97° (E) 13:28:32 437.505
Gurwin Techsat 1B 28 Mar 13:25:28 13:28:54 18° 65° (ENE) 13:32:20 435.225
NO-84 28 Mar 13:30:01 13:31:54 15° 38° (NE) 13:33:52 435.350 FM
SPROUT 28 Mar 13:31:15 13:35:27 52° 100° (E) 13:39:35 437.525
ESTCUBE 1 28 Mar 13:35:21 13:39:25 33° 288° (WNW) 13:43:28 437.505/2401.250
RS-15 28 Mar 13:35:35 13:47:32 81° 299° (WNW) 13:59:59 29.354- 29.394
NANOSAT C BR1 28 Mar 13:47:58 13:49:41 12° 267° (W) 13:51:24 145.865
SO-50 28 Mar 13:58:30 14:01:58 21° 111° (ESE) 14:05:25 436.795
DX 1 28 Mar 14:08:41 14:13:02 62° 101° (E) 14:17:21 434.975-435.025
Oscar 19 28 Mar 14:32:05 14:37:06 56° 259° (W) 14:42:08 437.125/150
VELOX 1 28 Mar 14:39:16 14:42:47 23° 291° (WNW) 14:46:15 145.980
UKube-1 28 Mar 14:44:32 14:48:52 71° 284° (WNW) 14:53:09 .
ITAMSAT 1 28 Mar 14:46:29 14:49:44 17° 65° (ENE) 14:52:57 435.822/435.867
SRMSAT 28 Mar 14:51:33 14:53:28 11° 195° (SSW) 14:55:23 437.500
AO-7 28 Mar 14:53:05 14:59:55 29° 60° (ENE) 15:06:43 .
50 SAT 28 Mar 14:56:23 14:58:23 15° 291° (WNW) 15:00:23 437.505
Gurwin Techsat 1B 28 Mar 15:03:14 15:08:22 51° 260° (W) 15:13:34 435.225
NO-84 28 Mar 15:06:25 15:09:35 45° 230° (SW) 15:13:01 435.350 FM
SPROUT 28 Mar 15:09:24 15:10:50 12° 294° (WNW) 15:12:18 437.525
SO-50 28 Mar 15:37:54 15:42:11 36° 305° (NW) 15:46:27 436.795
BEESAT 28 Mar 15:38:34 15:42:38 28° 97° (E) 15:46:41 436.000
DX 1 28 Mar 15:47:47 15:48:38 10° 296° (WNW) 15:49:29 434.975-435.025
RS-15 28 Mar 15:52:46 16:02:19 26° 325° (NW) 16:12:03 29.354- 29.394
ITUPSAT 1 28 Mar 15:55:55 16:00:26 42° 100° (E) 16:04:55 437.325
ITAMSAT 1 28 Mar 16:23:37 16:28:42 53° 259° (W) 16:33:49 435.822/435.867
O/OREOS (USA 219) 28 Mar 16:32:02 16:35:53 28° 103° (ESE) 16:39:47 437.305
AO-7 28 Mar 16:44:00 16:52:09 58° 257° (WSW) 17:00:20 .
MOZHAYETS 4 28 Mar 17:13:07 17:17:37 62° 285° (WNW) 17:22:07
BEESAT 28 Mar 17:16:24 17:20:16 25° 291° (WNW) 17:24:07 436.000
ITUPSAT 1 28 Mar 17:34:49 17:37:54 17° 294° (WNW) 17:40:57 437.325
YUBILEINY 28 Mar 17:46:07 17:49:55 13° 64° (ENE) 17:53:44 435.215
CUBESAT XI-V 28 Mar 18:11:08 18:15:49 86° 101° (E) 18:20:29 437.345
O/OREOS (USA 219) 28 Mar 18:11:39 18:15:15 23° 298° (WNW) 18:18:52 437.305
KKS-1 28 Mar 18:14:46 18:19:13 65° 285° (WNW) 18:23:38 437.445
DOVE 4 28 Mar 18:14:50 18:19:12 41° 72° (ENE) 18:23:51 437.250
RS-15 28 Mar 18:16:01 18:21:34 14° 1° (N) 18:27:05 29.354- 29.394
HO-68 28 Mar 18:24:58 18:27:58 13° 56° (NE) 18:30:57 435.675
PCSat 28 Mar 18:25:19 18:29:27 22° 53° (NE) 18:33:33 145.827
XW-2F 28 Mar 18:28:25 18:31:54 35° 74° (ENE) 18:35:22 145.980 - 146.000
CUTE-I 28 Mar 18:29:27 18:34:30 43° 72° (ENE) 18:39:34 437.470
LilacSat-2 28 Mar 18:33:45 18:37:26 46° 75° (ENE) 18:41:06 437.200
STARS 28 Mar 18:44:32 18:48:57 71° 284° (WNW) 18:53:19 437.465
NUDT-PHONESAT 28 Mar 18:46:49 18:50:28 51° 75° (ENE) 18:54:06 437.300
XW-2D 28 Mar 18:55:29 18:59:17 87° 258° (WSW) 19:03:06 145.860 - 145.880
KAITUO 1B 28 Mar 18:56:59 19:00:43 74° 77° (ENE) 19:04:26 145.475/437.950
XW-2B 28 Mar 19:01:30 19:05:17 75° 259° (WSW) 19:09:06 145.730 - 145.750
XW-2C 28 Mar 19:11:53 19:15:36 52° 260° (W) 19:19:19 145.795 - 145.815
Tancredo 1 28 Mar 19:20:49 19:23:05 18° 129° (SE) 19:25:21 437.200
ISS 28 Mar 19:31:08 19:33:40 21° 130° (SE) 19:36:15 437.550
YUBILEINY 28 Mar 19:39:20 19:48:05 81° 83° (E) 19:56:49 435.215
AO-85 28 Mar 19:41:48 19:43:26 12° 109° (ESE) 19:45:02 145.980
AAUSAT CUBESAT 2 28 Mar 19:50:13 19:51:25 11° 66° (ENE) 19:52:39 437.432
UWE-3 28 Mar 19:52:01 19:53:56 12° 66° (ENE) 19:55:51 435.000/436.395/437.385
M-CUBED/EXP-1 PRIME 28 Mar 19:53:44 19:58:25 72° 106° (ESE) 20:03:02 437.505
DOVE 4 28 Mar 19:54:00 19:57:05 17° 268° (W) 20:00:16 437.250
XW-2A 28 Mar 19:55:19 19:58:44 60° 76° (ENE) 20:02:08 145.665 - 145.685
STRAND 1 28 Mar 19:59:30 20:03:34 24° 96° (E) 20:07:36 437.568
XW-2F 28 Mar 20:04:41 20:06:09 12° 267° (W) 20:07:36 145.980 - 146.000
HO-68 28 Mar 20:07:24 20:14:32 80° 73° (ENE) 20:21:42 435.675
PCSat 28 Mar 20:07:52 20:13:04 48° 249° (WSW) 20:18:14 145.827
SEEDS 28 Mar 20:09:49 20:13:46 43° 74° (ENE) 20:17:43 437.485
CUTE-I 28 Mar 20:10:47 20:14:40 20° 266° (W) 20:18:35 437.470
CUTE 1.7 + AOD 2 28 Mar 20:20:58 20:25:09 82° 256° (WSW) 20:29:23 437.475
ZACube-1 28 Mar 20:26:20 20:29:13 17° 68° (ENE) 20:32:05 437.345
CUBEBUG 2 28 Mar 20:27:38 20:32:14 52° 75° (ENE) 20:36:50 437.445
RS-15 28 Mar 20:30:30 20:40:33 28° 37° (NE) 20:50:13 29.354- 29.394
AO-73 28 Mar 20:52:08 20:56:02 29° 72° (ENE) 20:59:54 145.935
Tancredo 1 28 Mar 20:56:11 20:59:01 30° 324° (NW) 21:01:53 437.200
ISS 28 Mar 21:07:09 21:10:01 29° 324° (NW) 21:12:56 437.550
AO-85 28 Mar 21:19:02 21:23:27 54° 301° (WNW) 21:27:35 145.980
AAUSAT CUBESAT 2 28 Mar 21:22:27 21:26:24 49° 261° (W) 21:30:24 437.432
UWE-3 28 Mar 21:25:16 21:29:52 58° 260° (W) 21:34:25 435.000/436.395/437.385
M-CUBED/EXP-1 PRIME 28 Mar 21:30:35 21:32:13 12° 300° (WNW) 21:33:49 437.505
STRAND 1 28 Mar 21:38:11 21:42:44 33° 290° (WNW) 21:47:15 437.568
YUBILEINY 28 Mar 21:38:39 21:43:43 17° 280° (W) 21:48:50 435.215
SEEDS 28 Mar 21:48:03 21:49:38 12° 268° (W) 21:51:13 437.485
Oscar 11 28 Mar 21:48:48 21:53:06 71° 259° (W) 21:57:24 .
HO-68 28 Mar 21:59:01 22:02:53 15° 268° (W) 22:06:46 435.675
ZACube-1 28 Mar 22:00:54 22:05:09 39° 261° (W) 22:09:22 437.345
CUBEBUG 2 28 Mar 22:06:46 22:09:04 13° 268° (W) 22:11:22 437.445
BEESAT 3 28 Mar 22:12:31 22:16:18 52° 115° (ESE) 22:20:09 437.485
DELFI C3 28 Mar 22:19:49 22:23:42 74° 78° (ENE) 22:27:38 145.870
AO-73 28 Mar 22:28:45 22:32:13 21° 265° (W) 22:35:39 145.935
UNISAT 6 28 Mar 22:30:03 22:32:32 15° 93° (E) 22:34:59 437.425
PRISM 28 Mar 22:30:48 22:34:32 31° 98° (E) 22:38:15 437.425
BEESAT 2 28 Mar 22:33:59 22:37:30 32° 113° (ESE) 22:41:05 435.950
FO-29 28 Mar 22:39:23 22:41:34 12° 89° (E) 22:43:42 435.910
RS-15 28 Mar 22:42:37 22:54:56 88° 63° (ENE) 23:06:35 29.354- 29.394
ESTCUBE 1 28 Mar 22:57:19 22:59:02 12° 65° (ENE) 23:00:45 437.505/2401.250
LO-87 28 Mar 23:09:42 23:12:46 27° 73° (ENE) 23:15:52 145.935 - 145.965
AIST 2D 28 Mar 23:46:50 23:47:51 11° 93° (E) 23:48:52 435.315
BEESAT 3 28 Mar 23:52:25 23:54:11 13° 312° (NW) 23:55:59 437.485
TIGRISAT 28 Mar 23:54:10 23:58:27 56° 285° (WNW) 00:02:38 435.000
VELOX 1 28 Mar 23:57:34 00:00:23 17° 67° (ENE) 00:03:10 145.980
UNISAT 6 29 Mar 00:05:20 00:09:23 38° 288° (WNW) 00:13:21 437.425
EO-79 29 Mar 00:05:24 00:07:06 12° 93° (E) 00:08:46 145.935-145.965
PRISM 29 Mar 00:06:46 00:09:32 18° 292° (WNW) 00:12:20 437.425
SO-50 29 Mar 00:11:48 00:16:19 79° 62° (ENE) 00:20:48 436.795
BEESAT 2 29 Mar 00:12:31 00:15:19 18° 309° (NW) 00:18:10 435.950
SPROUT 29 Mar 00:21:34 00:25:08 26° 71° (ENE) 00:28:43 437.525
FO-29 29 Mar 00:21:36 00:27:20 64° 286° (WNW) 00:32:32 435.910
ESTCUBE 1 29 Mar 00:30:57 00:35:19 55° 260° (W) 00:39:42 437.505/2401.250
POLYITAN 1 29 Mar 00:32:41 00:36:16 27° 97° (E) 00:39:50 437.675
QB50P2 29 Mar 00:37:14 00:41:05 33° 98° (E) 00:44:53 145.880/145.840
LO-87 29 Mar 00:44:17 00:46:14 14° 266° (W) 00:48:11 145.935 - 145.965
DUCHIFAT 1 29 Mar 00:45:27 00:49:11 31° 97° (E) 00:52:53 145.980
BUGSAT 1 29 Mar 00:53:31 00:54:27 11° 92° (E) 00:55:24 437.445
RS-15 29 Mar 00:57:48 01:05:38 21° 261° (W) 01:13:18 29.354- 29.394
DX 1 29 Mar 01:00:57 01:04:52 34° 72° (ENE) 01:08:48 434.975-435.025
AIST 2D 29 Mar 01:18:03 01:21:09 31° 286° (WNW) 01:24:14 435.315
50 SAT 29 Mar 01:25:03 01:28:27 64° 259° (WSW) 01:31:54 437.505
VELOX 1 29 Mar 01:32:24 01:36:28 37° 261° (W) 01:40:35 145.980
NANOSAT C BR1 29 Mar 01:32:38 01:36:47 58° 285° (WNW) 01:40:53 145.865
UKube-1 29 Mar 01:35:20 01:39:34 61° 74° (ENE) 01:43:50 .
EO-79 29 Mar 01:39:01 01:43:02 44° 287° (WNW) 01:47:02 145.935-145.965
SPROUT 29 Mar 01:57:37 02:00:58 22° 264° (W) 02:04:20 437.525
ISS 29 Mar 02:02:28 02:03:21 11° 25° (NNE) 02:04:12 437.550
POLYITAN 1 29 Mar 02:08:44 02:11:52 21° 291° (WNW) 02:14:58 437.675
QB50P2 29 Mar 02:13:50 02:16:34 17° 292° (WNW) 02:19:18 145.880/145.840
DUCHIFAT 1 29 Mar 02:21:45 02:24:36 18° 292° (WNW) 02:27:25 145.980
BUGSAT 1 29 Mar 02:26:03 02:30:03 47° 286° (WNW) 02:33:59 437.445
DX 1 29 Mar 02:38:16 02:41:06 17° 265° (W) 02:43:58 434.975-435.025
BEESAT 29 Mar 02:42:01 02:45:46 23° 68° (ENE) 02:49:30 436.000
O/OREOS (USA 219) 29 Mar 02:44:52 02:49:01 32° 64° (ENE) 02:53:09 437.305
Oscar 19 29 Mar 02:46:44 02:51:54 67° 102° (ESE) 02:57:03 437.125/150
ITUPSAT 1 29 Mar 02:59:25 03:03:44 34° 71° (ENE) 03:08:02 437.325
Gurwin Techsat 1B 29 Mar 03:22:34 03:27:55 83° 103° (ESE) 03:33:14 435.225
Tancredo 1 29 Mar 03:24:45 03:27:53 57° 40° (NE) 03:31:02 437.200
ISS 29 Mar 03:37:03 03:40:20 69° 41° (NE) 03:43:37 437.550
MOZHAYETS 4 29 Mar 04:11:12 04:15:47 84° 78° (ENE) 04:20:24
BEESAT 29 Mar 04:19:07 04:23:20 31° 262° (W) 04:27:34 436.000
O/OREOS (USA 219) 29 Mar 04:24:49 04:28:09 20° 259° (W) 04:31:28 437.305
Oscar 19 29 Mar 04:28:15 04:30:36 13° 297° (WNW) 04:32:58 437.125/150
ITUPSAT 1 29 Mar 04:38:01 04:41:34 21° 265° (W) 04:45:08 437.325
ITAMSAT 1 29 Mar 04:39:39 04:44:51 72° 102° (ESE) 04:49:59 435.822/435.867
AO-7 29 Mar 04:49:06 04:57:18 61° 104° (ESE) 05:05:27 .
Gurwin Techsat 1B 29 Mar 05:05:43 05:07:06 11° 298° (WNW) 05:08:29 435.225
KKS-1 29 Mar 05:09:04 05:13:29 75° 76° (ENE) 05:17:58 437.445
CUBESAT XI-V 29 Mar 05:10:55 05:15:23 56° 75° (ENE) 05:19:53 437.345
STARS 29 Mar 05:37:23 05:41:45 66° 75° (ENE) 05:46:10 437.465
AO-85 29 Mar 05:53:12 05:56:58 42° 58° (ENE) 06:00:51 145.980
DOVE 4 29 Mar 06:18:00 06:21:20 17° 92° (E) 06:24:38 437.250
ITAMSAT 1 29 Mar 06:21:34 06:23:38 12° 298° (WNW) 06:25:42 435.822/435.867
NO-84 29 Mar 06:22:10 06:25:06 89° 197° (SSW) 06:27:58 435.350 FM
XW-2D 29 Mar 06:33:16 06:34:40 12° 93° (E) 06:36:04 145.860 - 145.880
BEESAT 3 29 Mar 06:33:48 06:35:38 13° 48° (NE) 06:37:28 437.485
M-CUBED/EXP-1 PRIME 29 Mar 06:36:47 06:40:19 45° 69° (ENE) 06:44:10 437.505
XW-2B 29 Mar 06:38:48 06:40:43 14° 94° (E) 06:42:39 145.730 - 145.750
AO-7 29 Mar 06:42:51 06:49:28 28° 301° (WNW) 06:56:06 .
YUBILEINY 29 Mar 06:43:31 06:48:41 17° 80° (E) 06:53:50 435.215
XW-2C 29 Mar 06:48:26 06:51:07 19° 95° (E) 06:53:48 145.795 - 145.815
CUTE-I 29 Mar 06:50:28 06:54:35 22° 95° (E) 06:58:39 437.470
CUBESAT XI-V 29 Mar 06:51:39 06:53:03 11° 269° (W) 06:54:29 437.345
JUGNU 29 Mar 07:03:55 07:06:36 13° 168° (SSE) 07:09:18 437.505
STRAND 1 29 Mar 07:12:13 07:16:23 25° 68° (ENE) 07:20:33 437.568
